Location: Beadle
(51.4667°N, 109.0000°W)
Time: 04:35:47
(UTC+00:00)

Envisat - Pass Details

Date: 22 January 2022
Orbit: 764 x 765 km, 98.2° (Epoch: 25 May)

Event Time Altitude Azimuth Distance (km) Brightness Sun altitude
Rises 13:24:20 0° 8° (N) 3,245 6.2 -15.7°
Reaches altitude 10° 13:26:50 10° 359° (N) 2,314 5.4 -15.3°
Maximum altitude 13:31:20 33° 297° (WNW) 1,284 3.6 -14.6°
Drops below altitude 10° 13:35:48 10° 235° (SW) 2,301 5.1 -14.0°
Sets 13:38:17 0° 226° (SW) 3,223 5.9 -13.6°
